DIAMANT R/B, 2671

Orbit data source: Space-Track

DIAMANT R/B, 2671 is space debris in LEO originally from a launch on Wed, 08 Feb 1967 UTC launched from the Hamma Guira Space Track Range (HGSTR). Debris objects in space refer to the collection of defunct objects orbiting the Earth. Examples of debris include non-operational satellites, rocket bodies, and fragments generated from explosions, collisions, or faulty payload assembly.

Loading next visibility...
DIAMANT R/B details
Identifier
2671, 1967-011B
Orbit
LEO
Last TLE update12 hours ago
Origin
Flag of FRCNES (FR)
ManufacturerSud
MissionSpacecraft
Bus & MotorRUBIS, Unknown motor
Mass65 kg wet, 65 kg dry
Launch date (UTC)
1967-02-08 (58 years ago)
Launch vehicleUnknown
Launch site
Hamma Guira Space Track Range (HGSTR)
Object type
Payload
Rocket body
Debris
Shape & HBRCyl, 2.1 m
Radar Cross Section1.347 m², Large (>1 m²)

Expand to show TLE details & history

TLE from 12 hours ago
0 DIAMANT R/B
1  2671U 67011B   24356.13647470  .00001302  00000-0  27500-3 0  9996
2  2671  39.9465  45.0725 0339813  82.4348 281.4879 14.32389389978152
Epoch: 2024-12-21T03:16Z
Definitive object data (Epoch: 2024-12-21T03:16:31.414Z)
Latitude
Longitude-94.25035°
Altitude742.768 km
Speed7.506 km/s
True Right ascension03h 00m 17s
True Declination0° 00' 00"
Sunlit
Object was in full shadow at TLE epoch
Visualization TLE readout
Latitude-24.46494°
Longitude-129.41735°
Altitude924.854 km
Speed7.32 km/s
Apparent Right ascension01h 09m 31s
Apparent Declination-31° 48' 14"
Sunlit
Object is in daylight
Visualization observer readout
Local Sidereal Time13:50:13
Azimuth48.563° ENE
Elevation-78.447°
Doppler factor1
Orbital elements
Apogee altitude1,029.561 km
Perigee altitude542.66 km
Semi-major axis7,164.248 km
Eccentricity0.0339813
Inclination39.9465°
RAAN45.0725°
Arg. of periapsis82.4348°
True anomaly277.64228°
Mean anomaly281.4879°
Eccentric anomaly279.568°
Mean motion3.57921 °/min
BSTAR0.000275
Orbital period100.58 mins
Loading maneuver chart data...

DIAMANT R/B Visibility forecast

Observer location: undefined°, undefined

Span
Click to sort rows by Start time (UTC) header in descending order
Start Az.
Max El. time (UTC)
Max El. Az.
Max El.
End time (UTC)
End Az.
5 mins2024-12-22 06:15:02.488Z194.7° SSW2024-12-22 06:18:02.488Z142.41° SSE20.884°2024-12-22 06:20:02.488Z107.797° ESE
7 mins2024-12-22 08:00:02.488Z245.119° WSW2024-12-22 08:03:02.488Z171.114° S42.538°2024-12-22 08:07:02.488Z83.549° E
6 mins2024-12-22 09:46:02.488Z272.858° WNW2024-12-22 09:49:02.488Z93.878° ESE44.589°2024-12-22 09:52:02.488Z93.912° ESE
6 mins2024-12-22 11:32:02.488Z265.663° W2024-12-22 11:34:02.488Z221.749° SW35.162°2024-12-22 11:38:02.488Z128.902° SE
|